This is the latest recevied weather packets stored in our database for station/object KD2ZLA. If no packets are shown the sender has not sent any weather packets the latest 1 day(s).
| Time | Temp. | Humidity | Pressure | Rain* | Wind** | Luminosity | Snow |
|---|---|---|---|---|---|---|---|
| 1777962924 | 16.11° C | 50% | 1001.3 hPa | 0 mm | 1.79 m/s, 235° | 0 W/m² | - |
| 1777962620 | 15.56° C | 50% | 1001.1 hPa | 0 mm | 4.02 m/s, 233° | 0 W/m² | - |
| 1777962317 | 16.11° C | 50% | 1001.2 hPa | 0 mm | 0.89 m/s, 234° | 0 W/m² | - |
| 1777962014 | 16.11° C | 50% | 1001.1 hPa | 0 mm | 0.89 m/s, 215° | 0 W/m² | - |
| 1777961711 | 15.56° C | 51% | 1001.1 hPa | 0 mm | 0.89 m/s, 257° | 0 W/m² | - |
| 1777961409 | 15.56° C | 50% | 1001.3 hPa | 0 mm | 1.79 m/s, 250° | 0 W/m² | - |
| 1777961106 | 16.11° C | 50% | 1001.3 hPa | 0 mm | 2.24 m/s, 217° | 0 W/m² | - |
| 1777960802 | 16.11° C | 50% | 1001.5 hPa | 0 mm | 1.34 m/s, 227° | 0 W/m² | - |
| 1777960498 | 15.56° C | 50% | 1001.4 hPa | 0 mm | 3.13 m/s, 227° | 0 W/m² | - |
| 1777960195 | 15.56° C | 50% | 1001.4 hPa | 0 mm | 1.79 m/s, 205° | 0 W/m² | - |
| 1777959893 | 16.11° C | 49% | 1001.4 hPa | 0 mm | 1.79 m/s, 241° | 0 W/m² | - |
| 1777959590 | 16.11° C | 49% | 1001.5 hPa | 0 mm | 1.34 m/s, 223° | 0 W/m² | - |
| 1777959287 | 16.11° C | 49% | 1001.4 hPa | 0 mm | 1.34 m/s, 240° | 0 W/m² | - |
| 1777958984 | 16.67° C | 48% | 1001.5 hPa | 0 mm | 1.79 m/s, 252° | 0 W/m² | - |
| 1777958681 | 16.11° C | 49% | 1001.5 hPa | 0 mm | 2.68 m/s, 223° | 0 W/m² | - |
| 1777958378 | 16.11° C | 49% | 1001.5 hPa | 0 mm | 1.34 m/s, 241° | 0 W/m² | - |
| 1777958075 | 16.11° C | 49% | 1001.5 hPa | 0 mm | 0.89 m/s, 252° | 0 W/m² | - |
| 1777957773 | 15.56° C | 50% | 1001.6 hPa | 0 mm | 2.24 m/s, 232° | 0 W/m² | - |
| 1777957471 | 15.56° C | 51% | 1001.8 hPa | 0 mm | 0 m/s | 0 W/m² | - |
| 1777957168 | 15.56° C | 50% | 1001.6 hPa | 0 mm | 0.89 m/s, 190° | 0 W/m² | - |
| 1777956865 | 15.56° C | 50% | 1001.7 hPa | 0 mm | 0 m/s | 0 W/m² | - |
| 1777956561 | 16.11° C | 49% | 1001.9 hPa | 0 mm | 0.89 m/s, 242° | 0 W/m² | - |
| 1777956259 | 15.56° C | 49% | 1002 hPa | 0 mm | 0.89 m/s, 202° | 0 W/m² | - |
| 1777955955 | 16.11° C | 49% | 1002.1 hPa | 0 mm | 0.45 m/s, 207° | 0 W/m² | - |
| 1777955651 | 16.11° C | 49% | 1002 hPa | 0 mm | 0 m/s | 0 W/m² | - |
* Rain latest hour (hover to see other rain measurements)
** Current wind speed in m/s (hover to see current wind gust speed)